Regional Weather Roundup
Issued by NWS

Home | Current Version | Previous Version | Text Only | Print | Product List | Glossary On
Versions: 1 2 3 4 5 6 7 8 9 10 11 12 13 14 15 16 17 18 19 20 21 22 23 24 25 26 27 28 29 30 31 32 33 34 35 36 37 38 39 40 41 42 43 44 45 46 47 48 49 50
000
ASUS46 KSTO 010504
RWRCA

NORTHERN AND CENTRAL CA REGIONAL WEATHER ROUNDUP
NATIONAL WEATHER SERVICE SACRAMENTO CA
1000 PM PDT WED AUG 31 2016

NOTE: FAIR INDICATES FEW OR NO CLOUDS BELOW 12,000 FEET WITH NO
SIGNIFICANT WEATHER AND/OR OBSTRUCTIONS TO VISIBILITY.

CAZ001-003-010600-
NORTHWEST AREA

CITY           SKY/WX    TMP DP  RH WIND       PRES   REMARKS
CRESCENT CITY  CLOUDY    59  57  93 NW6       30.07S FOG
UKIAH          CLEAR     66  55  67 CALM      29.95R
$$

CAZ006-505>513-010600-
BAY AREA

CITY           SKY/WX    TMP DP  RH WIND       PRES   REMARKS
SANTA ROSA     CLEAR     61  55  81 S6        29.90R
SAN RAFAEL     N/A       MM  MM  MM MISG
NAPA           CLEAR     62  56  80 SW12      29.91R
CONCORD        CLEAR     65  55  70 S14       29.91S
OAKLAND CITY   N/A       MM  MM  MM MISG
OAKLAND        MOCLDY    62  59  90 W8        29.96R
SAN FRAN CITY  N/A       58  MM  97 MISG
SAN FRAN ARPT  MOCLDY    61  57  87 W15       29.96R
LIVERMORE      CLEAR     62  56  80 SW8       29.94S
HAYWARD        CLOUDY    63  55  75 W5        29.96R
REDWOOD CITY   N/A       MM  MM  MM MISG
MOFFETT ARPT   CLEAR     64  56  75 CALM      29.97R
SAN JOSE ARPT  PTCLDY    66  57  72 N7        29.96S
$$
CAZ034-037-514>518-010600-
CENTRAL COAST

CITY           SKY/WX    TMP DP  RH WIND       PRES   REMARKS
WATSONVILLE    CLEAR     61  58  90 NE5       29.98R
SALINAS        CLOUDY    63  57  81 W13       29.97S
MONTEREY       CLOUDY    62  58  86 SW8       30.00S
SANTA MARIA    CLOUDY    55  55 100 NW6       29.94R
$$
CAZ015-016-010600-
NORTHERN SACRAMENTO VALLEY

CITY           SKY/WX    TMP DP  RH WIND       PRES   REMARKS
REDDING        CLEAR     76  45  33 CALM      29.85R
RED BLUFF      CLEAR     75  51  43 N3        29.85R
OROVILLE       CLEAR     77  45  32 E7        29.87R
$$
CAZ016>018-010600-
SOUTHERN SACRAMENTO VALLEY

CITY           SKY/WX    TMP DP  RH WIND       PRES   REMARKS
AUBURN         CLEAR     70  46  43 SE5       29.94R
BEALE AFB      CLEAR     73  52  48 S8        29.84R
LINCOLN        FAIR      72  50  46 SE7       29.85S
MARYSVILLE     CLEAR     72  55  55 SE9       29.85R
SAC INTL ARPT  CLEAR     70  54  56 S13       29.84S
MATHER AIRPORT CLEAR     66  54  63 S8        29.87R
DOWNTOWN SAC   N/A       71  MM  MM MISG
SAC EXEC ARPT  CLEAR     68  55  63 S6        29.87R
VACAVILLE      CLEAR     71  53  52 SW7       29.86S
TRAVIS AFB     CLEAR     65  56  73 SW16      29.86R
$$
CAZ019>021-010600-
SAN JOAQUIN VALLEY

CITY           SKY/WX    TMP DP  RH WIND       PRES   REMARKS
STOCKTON       CLEAR     67  55  65 W10       29.89R
MODESTO        CLEAR     74  49  41 NW9       29.87R
MERCED         CLEAR     68  51  54 W5        29.88R
LEMOORE        CLEAR     78  46  32 NW14      29.86R
FRESNO         CLEAR     80  51  36 NW12      29.86R
HANFORD        CLEAR     80  50  34 NW14      29.86R
PORTERVILLE    CLEAR     78  56  46 N5        29.87R
BAKERSFIELD    CLEAR     85  51  31 NE5       29.85R
$$
CAZ011-012-071-010600-
NORTHERN MOUNTAINS

CITY           SKY/WX    TMP DP  RH WIND       PRES   REMARKS
YREKA          CLEAR     66  48  52 N9        30.02R
MOUNT SHASTA   MOCLDY    64  44  48 VRB3      30.03R
ALTURAS        CLEAR     64  26  23 W8        30.05R
$$
CAZ011-012-071-010600-
SIERRA NEVADA MTNS

CITY           SKY/WX    TMP DP  RH WIND       PRES   REMARKS
BLUE CANYON    CLEAR     60  38  43 CALM      30.13S
TRUCKEE        CLEAR     54  36  50 N5        30.17R
TAHOE VLY ARPT CLEAR     56  39  53 SW3       30.17R
$$




USA.gov is the U.S. government's official web portal to all federal, state and local government web resources and services.